Weather History for KC75 - September, 2012

Change the Weather History Date:

Friday, September 28, 2012

  Actual Average (KPIA) Record (KPIA)
Temperature  
Mean Temperature 58 °F 61 °F  
Max Temperature 74 °F 72 °F 92 °F (1939)
Min Temperature 43 °F 50 °F 24 °F (1942)
Degree Days  
Heating Degree Days 7 6  
Month to date heating degree days 72  
Since 1 July heating degree days 78  
Cooling Degree Days 0 2  
Month to date cooling degree days 114  
Year to date cooling degree days 1021  
Growing Degree Days 8 (Base 50)    
Moisture  
Dew Point 47 °F    
Average Humidity 71    
Maximum Humidity 98    
Minimum Humidity 37    
Precipitation  
Precipitation 0.00 in 0.10 in 2.14 in (1945)
Month to date precipitation 2.97  
Year to date precipitation 27.92  
Snow  
Snow 0.00 in 0.00 in 0.00 in ()
Month to date snowfall 0.0  
Since 1 July snowfall 0.0  
Since 1 September snowfall 0.0  
Snow Depth -    
Sea Level Pressure  
Sea Level Pressure 30.16 in    
Wind  
Wind Speed 2 mph (NNW)    
Max Wind Speed 13 mph    
Max Gust Speed 16 mph    
Visibility 9 miles    
Events      
T = Trace of Precipitation, MM = Missing Value Source: NWS Daily Summary

Daily Weather History Graph

Daily Weather History Graph

Search for Another Location

Airport or City:

Trip Planner

Search our weather history database for the weather conditions in past years. The results will help you decide how hot, cold, wet, or windy it might be!

Date:

Astronomy

Sep. 28, 2012 Rise Set
Actual Time 6:51 AM CDT 6:43 PM CDT
Civil Twilight 6:24 AM CDT 7:11 PM CDT
Nautical Twilight 5:52 AM CDT 7:42 PM CDT
Astronomical Twilight 5:19 AM CDT 8:15 PM CDT
Moon 5:46 PM CDT (9/28) 5:21 AM CDT (9/28)
Length of Visible Light 12h 46m
Length of Day
11h 52m
Waxing Gibbous, 98% of the Moon is Illuminated
Sep 28
Waxing Gibbous
Sep 29
Full
Oct 8
Last Quarter
Oct 15
New
Oct 21
First Quarter

Hourly Weather History & Observations

Time (CDT) Temp. Dew Point Humidity Pressure Visibility Wind Dir Wind Speed Gust Speed Precip Events Conditions
12:15 AM 52.7 °F 48.0 °F 84% 30.18 in 10.0 mi Calm Calm - N/A   Clear
12:35 AM 53.8 °F 48.6 °F 82% 30.18 in 10.0 mi Calm Calm - N/A   Clear
12:55 AM 53.1 °F 47.8 °F 82% 30.18 in 10.0 mi Calm Calm - N/A   Clear
1:15 AM 50.9 °F 47.8 °F 89% 30.18 in 10.0 mi Calm Calm - N/A   Clear
1:35 AM 50.0 °F 47.5 °F 91% 30.18 in 10.0 mi Calm Calm - N/A   Clear
1:55 AM 49.6 °F 47.8 °F 94% 30.17 in 10.0 mi Calm Calm - N/A   Clear
2:35 AM 48.2 °F 46.0 °F 92% 30.16 in 10.0 mi Calm Calm - N/A   Clear
2:55 AM 48.2 °F 46.9 °F 95% 30.16 in 10.0 mi Calm Calm - N/A   Clear
3:15 AM 47.1 °F 45.7 °F 95% 30.16 in 7.0 mi Calm Calm - N/A   Clear
3:35 AM 46.6 °F 45.7 °F 97% 30.16 in 2.0 mi Calm Calm - N/A   Clear
3:55 AM 46.2 °F 45.3 °F 97% 30.16 in 10.0 mi Calm Calm - N/A   Clear
4:15 AM 45.5 °F 44.6 °F 97% 30.16 in 10.0 mi Calm Calm - N/A   Clear
4:35 AM 45.5 °F 44.4 °F 96% 30.17 in 7.0 mi Calm Calm - N/A   Clear
4:55 AM 45.5 °F 44.8 °F 97% 30.17 in 2.5 mi Calm Calm - N/A   Clear
5:15 AM 45.1 °F 44.4 °F 97% 30.17 in 1.2 mi Calm Calm - N/A   Mostly Cloudy
5:35 AM 44.6 °F 43.7 °F 97% 30.18 in 1.0 mi Calm Calm - N/A   Overcast
5:55 AM 44.2 °F 43.5 °F 97% 30.18 in 7.0 mi Calm Calm - N/A   Scattered Clouds
6:15 AM 44.1 °F 43.3 °F 97% 30.18 in 7.0 mi Calm Calm - N/A   Clear
6:35 AM 44.2 °F 43.7 °F 98% 30.18 in 4.0 mi Calm Calm - N/A   Scattered Clouds
6:55 AM 45.0 °F 44.4 °F 98% 30.19 in 0.8 mi Calm Calm - N/A   Mist
7:15 AM 43.7 °F 43.2 °F 98% 30.19 in 1.5 mi Calm Calm - N/A   Mist
7:35 AM 45.7 °F 45.1 °F 98% 30.19 in 4.0 mi Calm Calm - N/A   Clear
7:55 AM 48.4 °F 47.5 °F 97% 30.19 in 10.0 mi NW 3.5 mph - N/A   Clear
8:15 AM 50.4 °F 47.3 °F 89% 30.19 in 10.0 mi Calm Calm - N/A   Clear
8:35 AM 52.2 °F 47.3 °F 83% 30.20 in 10.0 mi NW 4.6 mph - N/A   Clear
8:55 AM 53.8 °F 47.5 °F 79% 30.20 in 10.0 mi NNW 4.6 mph - N/A   Clear
9:15 AM 55.8 °F 48.0 °F 75% 30.21 in 10.0 mi NNW 8.1 mph - N/A   Clear
9:35 AM 58.3 °F 48.0 °F 69% 30.21 in 10.0 mi NNW 8.1 mph - N/A   Clear
9:55 AM 60.6 °F 48.0 °F 63% 30.21 in 10.0 mi NNW 8.1 mph - N/A   Clear
10:15 AM 62.8 °F 47.3 °F 57% 30.21 in 10.0 mi NNW 8.1 mph - N/A   Clear
10:35 AM 64.4 °F 45.0 °F 49% 30.21 in 10.0 mi NNW 8.1 mph - N/A   Clear
10:55 AM 66.2 °F 46.2 °F 49% 30.21 in 10.0 mi North 9.2 mph - N/A   Clear
11:15 AM 66.0 °F 45.9 °F 48% 30.20 in 10.0 mi NW 12.7 mph - N/A   Clear
11:35 AM 67.6 °F 45.1 °F 44% 30.20 in 10.0 mi North 10.4 mph - N/A   Clear
11:55 AM 68.9 °F 45.1 °F 42% 30.20 in 10.0 mi North 10.4 mph 16.1 mph N/A   Clear
12:15 PM 69.3 °F 45.9 °F 43% 30.19 in 10.0 mi NNW 10.4 mph 16.1 mph N/A   Clear
12:35 PM 69.6 °F 45.9 °F 43% 30.19 in 10.0 mi North 9.2 mph - N/A   Clear
12:55 PM 70.3 °F 46.4 °F 42% 30.18 in 10.0 mi North 11.5 mph - N/A   Clear
1:15 PM 71.1 °F 46.8 °F 42% 30.17 in 10.0 mi NNW 8.1 mph - N/A   Clear
1:35 PM 70.9 °F 46.0 °F 41% 30.16 in 10.0 mi NNW 6.9 mph - N/A   Clear
1:55 PM 71.6 °F 46.4 °F 41% 30.15 in 10.0 mi NW 9.2 mph - N/A   Clear
2:15 PM 72.3 °F 46.4 °F 40% 30.14 in 10.0 mi NNW 9.2 mph - N/A   Clear
2:35 PM 72.7 °F 47.1 °F 40% 30.13 in 10.0 mi NNW 5.8 mph - N/A   Clear
2:55 PM 73.4 °F 47.1 °F 39% 30.12 in 10.0 mi NNE 8.1 mph - N/A   Clear
3:15 PM 73.4 °F 46.2 °F 38% 30.12 in 10.0 mi Calm Calm - N/A   Clear
3:35 PM 73.6 °F 46.4 °F 38% 30.11 in 10.0 mi NW 9.2 mph - N/A   Clear
3:55 PM 73.8 °F 46.8 °F 38% 30.11 in 10.0 mi NW 6.9 mph - N/A   Clear
4:15 PM 73.8 °F 45.9 °F 37% 30.11 in 10.0 mi NNW 4.6 mph - N/A   Clear
4:35 PM 73.6 °F 45.5 °F 37% 30.11 in 10.0 mi NNW 3.5 mph - N/A   Clear
4:55 PM 73.2 °F 45.3 °F 37% 30.11 in 10.0 mi NNW 4.6 mph - N/A   Clear
5:15 PM 72.7 °F 45.3 °F 38% 30.11 in 10.0 mi NW 5.8 mph - N/A   Clear
5:35 PM 71.6 °F 46.8 °F 41% 30.11 in 10.0 mi NW 4.6 mph - N/A   Clear
5:55 PM 69.8 °F 47.5 °F 45% 30.11 in 10.0 mi WNW 4.6 mph - N/A   Clear
6:15 PM 68.9 °F 48.0 °F 47% 30.11 in 10.0 mi NW 3.5 mph - N/A   Clear
6:35 PM 63.1 °F 50.2 °F 63% 30.10 in 3.0 mi Calm Calm - N/A   Haze
6:55 PM 63.0 °F 49.1 °F 61% 30.10 in 4.0 mi North 3.5 mph - N/A   Haze
7:15 PM 64.8 °F 48.2 °F 55% 30.11 in 10.0 mi Calm Calm - N/A   Clear
7:35 PM 56.7 °F 50.2 °F 79% 30.11 in 10.0 mi Calm Calm - N/A   Clear
7:55 PM 57.2 °F 50.2 °F 77% 30.11 in 10.0 mi Calm Calm - N/A   Clear
8:15 PM 56.1 °F 48.6 °F 76% 30.12 in 10.0 mi Calm Calm - N/A   Clear
8:35 PM 55.2 °F 49.6 °F 81% 30.12 in 10.0 mi Calm Calm - N/A   Clear
8:55 PM 55.4 °F 48.9 °F 79% 30.12 in 10.0 mi Calm Calm - N/A   Scattered Clouds
9:15 PM 54.0 °F 48.4 °F 81% 30.13 in 10.0 mi Calm Calm - N/A   Clear
9:35 PM 53.4 °F 47.7 °F 81% 30.13 in 10.0 mi Calm Calm - N/A   Clear
9:55 PM 53.6 °F 48.0 °F 81% 30.13 in 10.0 mi Calm Calm - N/A   Clear
10:15 PM 53.8 °F 47.7 °F 80% 30.13 in 10.0 mi Calm Calm - N/A   Clear
10:35 PM 53.2 °F 48.4 °F 84% 30.13 in 10.0 mi Calm Calm - N/A   Clear
10:55 PM 51.4 °F 48.0 °F 88% 30.14 in 10.0 mi Calm Calm - N/A   Clear
11:15 PM 50.4 °F 46.9 °F 88% 30.14 in 10.0 mi Calm Calm - N/A   Clear
11:35 PM 50.0 °F 47.3 °F 90% 30.14 in 10.0 mi Calm Calm - N/A   Clear
11:55 PM 49.5 °F 47.1 °F 92% 30.13 in 10.0 mi Calm Calm - N/A   Clear